Tracking 20066 objects as of 7-Dec-2019
HD Live streaming from Space Station
objects crossing your sky now

COSMOS 2251 DEB

Track COSMOS 2251 DEB now!
10-day predictions


NORAD ID: 35039
Int'l Code: 1993-036AHC
Perigee: 650.1 km
Apogee: 689.8 km
Inclination: 74.0 °
Period: 98.0 minutes
Semi major axis: 7040 km
RCS: 0.0039 m2 (small)
Launch date: June 16, 1993
Source: Commonwealth of Independent States (former USSR) (CIS)
Launch site: PLESETSK MISSILE AND SPACE COMPLEX (PKMTR)

Note: This is SATELLITE DEBRIS
aabbcc
Your satellite tracking list
Your tracking list is empty




NASA's NSSDC Master Catalog

Two Line Element Set (TLE):
1 35039U 93036AHC 19340.15341088 +.00002324 +00000-0 +39547-3 0  9990
2 35039 074.0163 149.8923 0028209 049.0528 311.3078 14.69447083396274
Source of the keplerian elements: AFSPC